This is the latest recevied weather packets stored in our database for station/object WO5CID. If no packets are shown the sender has not sent any weather packets the latest 10 day(s).
| Time | Temp. | Humidity | Pressure | Rain* | Wind** | Luminosity | Snow |
|---|---|---|---|---|---|---|---|
| 1777722080 | 20° C | 99% | 1009 hPa | 0 mm | - | 52 W/m² | - |
| 1777721777 | 20° C | 99% | 1009.3 hPa | 0 mm | - | 39 W/m² | - |
| 1777721476 | 20° C | 99% | 1009.4 hPa | 0 mm | - | 37 W/m² | - |
| 1777721173 | 19.44° C | 98% | 1009.2 hPa | 0 mm | - | 30 W/m² | - |
| 1777720870 | 19.44° C | 98% | 1009.3 hPa | 0 mm | - | 31 W/m² | - |
| 1777720568 | 19.44° C | 98% | 1009.4 hPa | 0 mm | - | 23 W/m² | - |
| 1777720265 | 19.44° C | 98% | 1009.3 hPa | 0 mm | - | 16 W/m² | - |
| 1777719963 | 19.44° C | 98% | 1009.3 hPa | 0 mm | - | 12 W/m² | - |
| 1777719660 | 19.44° C | 98% | 1009.1 hPa | 0 mm | - | 10 W/m² | - |
| 1777719357 | 19.44° C | 98% | 1009.1 hPa | 0 mm | - | 7 W/m² | - |
| 1777719054 | 19.44° C | 98% | 1009.3 hPa | 0 mm | - | 4 W/m² | - |
| 1777718751 | 19.44° C | 98% | 1009.3 hPa | 0 mm | - | 2 W/m² | - |
| 1777718449 | 19.44° C | 98% | 1009.1 hPa | 0 mm | - | 1 W/m² | - |
| 1777718147 | 19.44° C | 98% | 1008.8 hPa | 0 mm | - | 1 W/m² | - |
| 1777717845 | 19.44° C | 98% | 1008.9 hPa | 0 mm | - | 0 W/m² | - |
| 1777717540 | 19.44° C | 98% | 1008.7 hPa | 0 mm | - | 0 W/m² | - |
| 1777717238 | 19.44° C | 98% | 1008.6 hPa | 0 mm | - | 0 W/m² | - |
| 1777716936 | 19.44° C | 98% | 1008.5 hPa | 0 mm | - | 0 W/m² | - |
| 1777716634 | 19.44° C | 98% | 1008.3 hPa | 0 mm | - | 0 W/m² | - |
| 1777716332 | 19.44° C | 98% | 1008.5 hPa | 0 mm | - | 0 W/m² | - |
| 1777716030 | 19.44° C | 98% | 1008.5 hPa | 0 mm | - | 0 W/m² | - |
| 1777715727 | 18.89° C | 98% | 1008.7 hPa | 0 mm | - | 0 W/m² | - |
| 1777715425 | 18.89° C | 98% | 1008.4 hPa | 0 mm | - | 0 W/m² | - |
| 1777715122 | 19.44° C | 98% | 1008.6 hPa | 0 mm | - | 0 W/m² | - |
| 1777714820 | 19.44° C | 98% | 1008.6 hPa | 0 mm | - | 0 W/m² | - |
* Rain latest hour (hover to see other rain measurements)
** Current wind speed in m/s (hover to see current wind gust speed)